{"data":{"norad_id":67244,"epoch":"2026-09-20T00:07:00.486336Z","epoch_age_seconds":145818,"freshness":"FRESH","line1":"1 67244U 25311J   26263.00486674 -.00000097  00000+0  57559-4 0  9990","line2":"2 67244  50.0082 135.6771 0000216   1.4182 358.6691 13.29328110 35955","mean_motion":13.2932811,"eccentricity":2.16e-5,"inclination_deg":50.0082,"raan_deg":135.6771,"arg_perigee_deg":1.4182,"mean_anomaly_deg":358.6691,"bstar":5.7559e-5,"rev_number":3595,"period_min":108.32540056646,"perigee_km":1149.1360138623,"apogee_km":1149.4611990805,"semimajor_km":7527.4356064714,"source":"CELESTRAK","updated_at":"2026-09-21T09:00:16.510102Z"}}